This is the latest recevied weather packets stored in our database for station/object SM0PQB-13. If no packets are shown the sender has not sent any weather packets the latest 10 day(s).
| Time | Temp. | Humidity | Pressure | Rain* | Wind** | Luminosity | Snow |
|---|---|---|---|---|---|---|---|
| 1777918152 | 23.33° C | 39% | 1000.9 hPa | - | - | - | - |
| 1777917553 | 23.33° C | 38% | 1000.8 hPa | - | - | - | - |
| 1777916953 | 23.33° C | 39% | 1000.7 hPa | - | - | - | - |
| 1777916354 | 23.33° C | 39% | 1000.6 hPa | - | - | - | - |
| 1777915754 | 23.33° C | 40% | 1000.7 hPa | - | - | - | - |
| 1777915152 | 23.33° C | 39% | 1000.6 hPa | - | - | - | - |
| 1777914552 | 23.33° C | 38% | 1000.7 hPa | - | - | - | - |
| 1777913953 | 23.33° C | 38% | 1000.6 hPa | - | - | - | - |
| 1777913352 | 23.33° C | 37% | 1000.6 hPa | - | - | - | - |
| 1777912752 | 23.89° C | 37% | 1000.6 hPa | - | - | - | - |
| 1777912152 | 23.89° C | 37% | 1000.5 hPa | - | - | - | - |
| 1777911552 | 23.89° C | 37% | 1000.3 hPa | - | - | - | - |
| 1777910953 | 23.89° C | 37% | 1000.2 hPa | - | - | - | - |
| 1777910352 | 23.89° C | 37% | 1000.1 hPa | - | - | - | - |
| 1777909752 | 23.89° C | 37% | 1000 hPa | - | - | - | - |
| 1777909152 | 24.44° C | 37% | 999.9 hPa | - | - | - | - |
| 1777908553 | 24.44° C | 37% | 999.9 hPa | - | - | - | - |
| 1777907952 | 24.44° C | 36% | 999.8 hPa | - | - | - | - |
| 1777907352 | 25° C | 35% | 999.7 hPa | - | - | - | - |
| 1777906753 | 26.11° C | 33% | 999.7 hPa | - | - | - | - |
| 1777906153 | 26.11° C | 33% | 999.6 hPa | - | - | - | - |
| 1777905552 | 25.56° C | 34% | 999.1 hPa | - | - | - | - |
| 1777904954 | 26.11° C | 32% | 999.5 hPa | - | - | - | - |
| 1777904352 | 26.67° C | 31% | 999.6 hPa | - | - | - | - |
| 1777903752 | 26.11° C | 33% | 999.6 hPa | - | - | - | - |
* Rain since midnight (hover to see other rain measurements)
** Current wind speed in m/s (hover to see current wind gust speed)